INTELSAT 37E (IS-37E)

Last updated on Sat Sep 12 2026 00:03:03 GMT+0000 (Coordinated Universal Time)

1 42950U 17059A 26254.43534078 .00000000 00000+0 00000+0 0 9993 2 42950 0.0254 155.0779 0002626 14.2772 319.8260 1.00270341 32930
UTC large
Height (km)
Speed (km/s)
/
Latitude / Longitude
Inclination (degrees)
Orbital Period (minutes)
Azimuth
Elevation
Range (km)
Doppler Factor

Next 0 passes for location: London (51.5072 / 0.1276)

No passes found over London.
INTELSAT 37E (IS-37E)